Time,TemperatureF,DewpointF,PressureIn,WindDirection,WindDirectionDegrees,WindSpeedMPH,WindSpeedGustMPH,Humidity,HourlyPrecipIn,Conditions,Clouds,dailyrainin,SoftwareType,DateUTC
2013-08-07 00:02:00,76.0,74.0,-100.00,NNE,23,2.0,-999.0,93,-99.99,,,-99.99,,2013-08-07 05:02:00,
2013-08-07 00:22:00,77.0,75.0,-100.00,ENE,68,2.0,-999.0,93,-99.99,,,-99.99,,2013-08-07 05:22:00,
2013-08-07 00:32:00,75.0,73.0,-100.00,East,90,0.0,-999.0,93,-99.99,,,-99.99,,2013-08-07 05:32:00,
2013-08-07 00:43:00,75.0,73.0,-100.00,East,90,0.0,-999.0,93,-99.99,,,-99.99,,2013-08-07 05:43:00,
2013-08-07 00:52:00,75.0,73.0,-100.00,NE,45,1.0,-999.0,93,-99.99,,,-99.99,,2013-08-07 05:52:00,
2013-08-07 01:02:00,75.0,73.0,-100.00,NE,45,0.0,-999.0,93,-99.99,,,-99.99,,2013-08-07 06:02:00,
2013-08-07 01:11:00,75.0,73.0,-100.00,NE,45,0.0,-999.0,93,-99.99,,,-99.99,,2013-08-07 06:11:00,
2013-08-07 01:22:00,75.0,73.0,-100.00,NE,45,0.0,-999.0,93,-99.99,,,-99.99,,2013-08-07 06:22:00,
2013-08-07 01:32:00,75.0,72.0,-100.00,NW,315,1.0,-999.0,93,-99.99,,,-99.99,,2013-08-07 06:32:00,
2013-08-07 01:43:00,75.0,72.0,-100.00,NW,315,1.0,-999.0,93,-99.99,,,-99.99,,2013-08-07 06:43:00,
2013-08-07 01:52:00,75.0,73.0,-100.00,NW,315,2.0,-999.0,93,-99.99,,,-99.99,,2013-08-07 06:52:00,
2013-08-07 02:01:00,73.0,71.0,-100.00,NNE,23,4.0,-999.0,93,-99.99,,,-99.99,,2013-08-07 07:01:00,
2013-08-07 02:12:00,73.0,71.0,-100.00,NNE,23,4.0,-999.0,93,-99.99,,,-99.99,,2013-08-07 07:12:00,
2013-08-07 02:21:00,73.0,71.0,-100.00,NNE,23,4.0,-999.0,93,-99.99,,,-99.99,,2013-08-07 07:21:00,
2013-08-07 02:33:00,73.0,71.0,-100.00,NNE,23,12.0,-999.0,95,-99.99,,,-99.99,,2013-08-07 07:33:00,
2013-08-07 02:43:00,73.0,71.0,-100.00,NNE,23,12.0,-999.0,95,-99.99,,,-99.99,,2013-08-07 07:43:00,
2013-08-07 02:52:00,75.0,73.0,-100.00,NNE,23,5.0,-999.0,95,-99.99,,,-99.99,,2013-08-07 07:52:00,
2013-08-07 03:01:00,74.0,73.0,-100.00,North,0,3.0,-999.0,95,-99.99,,,-99.99,,2013-08-07 08:01:00,
2013-08-07 03:22:00,74.0,73.0,-100.00,North,0,4.0,-999.0,95,-99.99,,,-99.99,,2013-08-07 08:22:00,
2013-08-07 03:32:00,74.0,73.0,-100.00,North,0,3.0,-999.0,95,-99.99,,,-99.99,,2013-08-07 08:32:00,
2013-08-07 03:44:00,74.0,73.0,-100.00,North,0,3.0,-999.0,95,-99.99,,,-99.99,,2013-08-07 08:44:00,
2013-08-07 03:52:00,74.0,72.0,-100.00,NNW,338,3.0,-999.0,95,-99.99,,,-99.99,,2013-08-07 08:52:00,
2013-08-07 04:01:00,74.0,72.0,-100.00,NNE,23,2.0,-999.0,95,-99.99,,,-99.99,,2013-08-07 09:01:00,
2013-08-07 04:11:00,74.0,72.0,-100.00,NNE,23,2.0,-999.0,95,-99.99,,,-99.99,,2013-08-07 09:11:00,
2013-08-07 04:22:00,73.0,71.0,-100.00,NNE,23,7.0,-999.0,95,-99.99,,,-99.99,,2013-08-07 09:22:00,
2013-08-07 04:32:00,73.0,71.0,-100.00,NNE,23,7.0,-999.0,95,-99.99,,,-99.99,,2013-08-07 09:32:00,
2013-08-07 04:43:00,73.0,71.0,-100.00,NNE,23,7.0,-999.0,95,-99.99,,,-99.99,,2013-08-07 09:43:00,
2013-08-07 04:54:00,73.0,71.0,-100.00,North,0,5.0,-999.0,95,-99.99,,,-99.99,,2013-08-07 09:54:00,
2013-08-07 05:01:00,72.0,71.0,-100.00,NNE,23,7.0,-999.0,95,-99.99,,,-99.99,,2013-08-07 10:01:00,
2013-08-07 05:21:00,73.0,71.0,-100.00,North,0,6.0,-999.0,95,-99.99,,,-99.99,,2013-08-07 10:21:00,
2013-08-07 05:32:00,72.0,70.0,-100.00,North,0,7.0,-999.0,95,-99.99,,,-99.99,,2013-08-07 10:32:00,
2013-08-07 05:43:00,72.0,70.0,-100.00,North,0,7.0,-999.0,95,-99.99,,,-99.99,,2013-08-07 10:43:00,
2013-08-07 05:52:00,72.0,70.0,-100.00,NNE,23,7.0,-999.0,95,-99.99,,,-99.99,,2013-08-07 10:52:00,
2013-08-07 06:01:00,71.0,69.0,-100.00,NNE,23,6.0,-999.0,93,-99.99,,,-99.99,,2013-08-07 11:01:00,
2013-08-07 06:22:00,71.0,68.0,-100.00,NNE,23,7.0,-999.0,93,-99.99,,,-99.99,,2013-08-07 11:22:00,
2013-08-07 06:32:00,71.0,68.0,-100.00,NNE,23,7.0,-999.0,93,-99.99,,,-99.99,,2013-08-07 11:32:00,
2013-08-07 06:43:00,71.0,68.0,-100.00,NNE,23,7.0,-999.0,93,-99.99,,,-99.99,,2013-08-07 11:43:00,
2013-08-07 06:53:00,70.0,68.0,-100.00,NNE,23,6.0,-999.0,93,-99.99,,,-99.99,,2013-08-07 11:53:00,
2013-08-07 07:02:00,70.0,68.0,-100.00,NNE,23,6.0,-999.0,93,-99.99,,,-99.99,,2013-08-07 12:02:00,
2013-08-07 07:22:00,70.0,68.0,-100.00,NNE,23,5.0,-999.0,93,-99.99,,,-99.99,,2013-08-07 12:22:00,
2013-08-07 07:32:00,70.0,68.0,-100.00,NNE,23,6.0,-999.0,93,-99.99,,,-99.99,,2013-08-07 12:32:00,
2013-08-07 07:43:00,70.0,68.0,-100.00,NNE,23,6.0,-999.0,93,-99.99,,,-99.99,,2013-08-07 12:43:00,
2013-08-07 07:52:00,70.0,68.0,-100.00,NNE,23,6.0,-999.0,92,-99.99,,,-99.99,,2013-08-07 12:52:00,
2013-08-07 08:02:00,71.0,68.0,-100.00,NNE,23,6.0,-999.0,91,-99.99,,,-99.99,,2013-08-07 13:02:00,
2013-08-07 08:22:00,70.0,68.0,-100.00,North,0,6.0,-999.0,91,-99.99,,,-99.99,,2013-08-07 13:22:00,
2013-08-07 08:32:00,70.0,68.0,-100.00,North,0,6.0,-999.0,91,-99.99,,,-99.99,,2013-08-07 13:32:00,
2013-08-07 08:44:00,70.0,68.0,-100.00,North,0,6.0,-999.0,91,-99.99,,,-99.99,,2013-08-07 13:44:00,
2013-08-07 08:53:00,70.0,67.0,-100.00,North,0,7.0,-999.0,91,-99.99,,,-99.99,,2013-08-07 13:53:00,
2013-08-07 09:02:00,70.0,67.0,-100.00,NNE,23,8.0,-999.0,89,-99.99,,,-99.99,,2013-08-07 14:02:00,
2013-08-07 09:22:00,71.0,66.0,-100.00,NNE,23,9.0,-999.0,86,-99.99,,,-99.99,,2013-08-07 14:22:00,
2013-08-07 09:33:00,71.0,66.0,-100.00,NNE,23,9.0,-999.0,84,-99.99,,,-99.99,,2013-08-07 14:33:00,
2013-08-07 09:43:00,71.0,66.0,-100.00,NNE,23,9.0,-999.0,84,-99.99,,,-99.99,,2013-08-07 14:43:00,
2013-08-07 09:52:00,71.0,65.0,-100.00,NNE,23,9.0,-999.0,81,-99.99,,,-99.99,,2013-08-07 14:52:00,
2013-08-07 10:02:00,72.0,65.0,-100.00,North,0,11.0,-999.0,80,-99.99,,,-99.99,,2013-08-07 15:02:00,
2013-08-07 10:22:00,72.0,65.0,-100.00,NNE,23,9.0,-999.0,78,-99.99,,,-99.99,,2013-08-07 15:22:00,
2013-08-07 10:33:00,73.0,66.0,-100.00,NNE,23,9.0,-999.0,78,-99.99,,,-99.99,,2013-08-07 15:33:00,
2013-08-07 10:43:00,73.0,66.0,-100.00,NNE,23,9.0,-999.0,78,-99.99,,,-99.99,,2013-08-07 15:43:00,
2013-08-07 10:53:00,74.0,66.0,-100.00,NNE,23,11.0,-999.0,75,-99.99,,,-99.99,,2013-08-07 15:53:00,
2013-08-07 11:02:00,76.0,66.0,-100.00,NNE,23,8.0,-999.0,71,-99.99,,,-99.99,,2013-08-07 16:02:00,
2013-08-07 11:11:00,76.0,66.0,-100.00,NNE,23,8.0,-999.0,71,-99.99,,,-99.99,,2013-08-07 16:11:00,
2013-08-07 11:22:00,78.0,65.0,-100.00,ENE,68,8.0,-999.0,65,-99.99,,,-99.99,,2013-08-07 16:22:00,
2013-08-07 11:33:00,79.0,65.0,-100.00,NE,45,9.0,-999.0,63,-99.99,,,-99.99,,2013-08-07 16:33:00,
2013-08-07 11:43:00,79.0,65.0,-100.00,NE,45,9.0,-999.0,63,-99.99,,,-99.99,,2013-08-07 16:43:00,
2013-08-07 11:53:00,80.0,66.0,-100.00,NE,45,7.0,-999.0,61,-99.99,,,-99.99,,2013-08-07 16:53:00,
2013-08-07 12:01:00,80.0,64.0,-100.00,NE,45,11.0,-999.0,58,-99.99,,,-99.99,,2013-08-07 17:01:00,
2013-08-07 12:11:00,80.0,64.0,-100.00,NE,45,11.0,-999.0,58,-99.99,,,-99.99,,2013-08-07 17:11:00,
2013-08-07 12:22:00,80.0,64.0,-100.00,NE,45,10.0,-999.0,58,-99.99,,,-99.99,,2013-08-07 17:22:00,
2013-08-07 12:33:00,80.0,63.0,-100.00,NE,45,11.0,-999.0,56,-99.99,,,-99.99,,2013-08-07 17:33:00,
2013-08-07 12:43:00,80.0,63.0,-100.00,NE,45,11.0,-999.0,56,-99.99,,,-99.99,,2013-08-07 17:43:00,
2013-08-07 12:52:00,80.0,63.0,-100.00,NE,45,12.0,-999.0,56,-99.99,,,-99.99,,2013-08-07 17:52:00,
2013-08-07 13:02:00,83.0,64.0,-100.00,NE,45,11.0,-999.0,54,-99.99,,,-99.99,,2013-08-07 18:02:00,
2013-08-07 13:11:00,83.0,64.0,-100.00,NE,45,11.0,-999.0,54,-99.99,,,-99.99,,2013-08-07 18:11:00,
2013-08-07 13:22:00,84.0,64.0,-100.00,NE,45,11.0,-999.0,51,-99.99,,,-99.99,,2013-08-07 18:22:00,
2013-08-07 13:32:00,82.0,61.0,-100.00,NE,45,12.0,-999.0,49,-99.99,,,-99.99,,2013-08-07 18:32:00,
2013-08-07 13:43:00,82.0,61.0,-100.00,NE,45,12.0,-999.0,49,-99.99,,,-99.99,,2013-08-07 18:43:00,
2013-08-07 13:52:00,85.0,60.0,-100.00,ENE,68,13.0,-999.0,44,-99.99,,,-99.99,,2013-08-07 18:52:00,
2013-08-07 14:01:00,85.0,60.0,-100.00,ENE,68,12.0,-999.0,43,-99.99,,,-99.99,,2013-08-07 19:01:00,
2013-08-07 14:11:00,85.0,60.0,-100.00,ENE,68,12.0,-999.0,43,-99.99,,,-99.99,,2013-08-07 19:11:00,
2013-08-07 14:22:00,85.0,-99.9,-100.00,ENE,68,15.0,-999.0,39,-99.99,,,-99.99,,2013-08-07 19:22:00,
2013-08-07 14:32:00,85.0,59.0,-100.00,NE,45,12.0,-999.0,41,-99.99,,,-99.99,,2013-08-07 19:32:00,
2013-08-07 14:44:00,85.0,59.0,-100.00,NE,45,12.0,-999.0,41,-99.99,,,-99.99,,2013-08-07 19:44:00,
2013-08-07 14:52:00,86.0,60.0,-100.00,NE,45,11.0,-999.0,42,-99.99,,,-99.99,,2013-08-07 19:52:00,
2013-08-07 15:02:00,86.0,61.0,-100.00,ENE,68,9.0,-999.0,43,-99.99,,,-99.99,,2013-08-07 20:02:00,
2013-08-07 15:11:00,86.0,61.0,-100.00,ENE,68,9.0,-999.0,43,-99.99,,,-99.99,,2013-08-07 20:11:00,
2013-08-07 15:22:00,86.0,60.0,-100.00,ENE,68,9.0,-999.0,42,-99.99,,,-99.99,,2013-08-07 20:22:00,
2013-08-07 15:32:00,86.0,61.0,-100.00,NE,45,9.0,-999.0,43,-99.99,,,-99.99,,2013-08-07 20:32:00,
2013-08-07 15:43:00,86.0,61.0,-100.00,NE,45,9.0,-999.0,43,-99.99,,,-99.99,,2013-08-07 20:43:00,
2013-08-07 15:52:00,85.0,57.0,-100.00,ENE,68,11.0,-999.0,39,-99.99,,,-99.99,,2013-08-07 20:52:00,
2013-08-07 16:01:00,85.0,57.0,-100.00,ENE,68,8.0,-999.0,39,-99.99,,,-99.99,,2013-08-07 21:01:00,
2013-08-07 16:11:00,85.0,57.0,-100.00,ENE,68,8.0,-999.0,39,-99.99,,,-99.99,,2013-08-07 21:11:00,
2013-08-07 16:22:00,87.0,58.0,-100.00,ENE,68,7.0,-999.0,37,-99.99,,,-99.99,,2013-08-07 21:22:00,
2013-08-07 16:32:00,88.0,59.0,-100.00,East,90,6.0,-999.0,37,-99.99,,,-99.99,,2013-08-07 21:32:00,
2013-08-07 16:43:00,88.0,59.0,-100.00,East,90,6.0,-999.0,37,-99.99,,,-99.99,,2013-08-07 21:43:00,
2013-08-07 16:52:00,88.0,60.0,-100.00,ESE,113,5.0,-999.0,39,-99.99,,,-99.99,,2013-08-07 21:52:00,
2013-08-07 17:01:00,88.0,58.0,-100.00,East,90,6.0,-999.0,37,-99.99,,,-99.99,,2013-08-07 22:01:00,
2013-08-07 17:12:00,88.0,58.0,-100.00,East,90,6.0,-999.0,37,-99.99,,,-99.99,,2013-08-07 22:12:00,
2013-08-07 17:22:00,88.0,58.0,-100.00,East,90,6.0,-999.0,37,-99.99,,,-99.99,,2013-08-07 22:22:00,
2013-08-07 17:32:00,87.0,56.0,-100.00,ENE,68,5.0,-999.0,35,-99.99,,,-99.99,,2013-08-07 22:32:00,
2013-08-07 17:43:00,87.0,-99.9,-100.00,ENE,68,5.0,-999.0,35,-99.99,,,-99.99,,2013-08-07 22:43:00,
2013-08-07 17:52:00,87.0,-99.9,-100.00,ENE,68,5.0,-999.0,35,-99.99,,,-99.99,,2013-08-07 22:52:00,
2013-08-07 18:01:00,87.0,56.0,-100.00,ENE,68,6.0,-999.0,35,-99.99,,,-99.99,,2013-08-07 23:01:00,
2013-08-07 18:11:00,87.0,56.0,-100.00,ENE,68,6.0,-999.0,35,-99.99,,,-99.99,,2013-08-07 23:11:00,
2013-08-07 18:22:00,86.0,58.0,-100.00,ENE,68,6.0,-999.0,39,-99.99,,,-99.99,,2013-08-07 23:22:00,
2013-08-07 18:32:00,85.0,59.0,-100.00,ENE,68,6.0,-999.0,41,-99.99,,,-99.99,,2013-08-07 23:32:00,
2013-08-07 18:43:00,85.0,59.0,-100.00,ENE,68,6.0,-999.0,41,-99.99,,,-99.99,,2013-08-07 23:43:00,
2013-08-07 18:52:00,85.0,60.0,-100.00,ENE,68,3.0,-999.0,43,-99.99,,,-99.99,,2013-08-07 23:52:00,
2013-08-07 19:01:00,85.0,63.0,-100.00,ENE,68,2.0,-999.0,47,-99.99,,,-99.99,,2013-08-08 00:01:00,
2013-08-07 19:11:00,85.0,63.0,-100.00,ENE,68,2.0,-999.0,47,-99.99,,,-99.99,,2013-08-08 00:11:00,
2013-08-07 19:22:00,83.0,63.0,-100.00,NE,45,4.0,-999.0,50,-99.99,,,-99.99,,2013-08-08 00:22:00,
2013-08-07 19:32:00,81.0,63.0,-100.00,NE,45,3.0,-999.0,54,-99.99,,,-99.99,,2013-08-08 00:32:00,
2013-08-07 19:42:00,81.0,63.0,-100.00,NE,45,3.0,-999.0,54,-99.99,,,-99.99,,2013-08-08 00:42:00,
2013-08-07 19:52:00,80.0,68.0,-100.00,North,0,3.0,-999.0,65,-99.99,,,-99.99,,2013-08-08 00:52:00,
2013-08-07 20:02:00,80.0,70.0,-100.00,North,0,2.0,-999.0,71,-99.99,,,-99.99,,2013-08-08 01:02:00,
2013-08-07 20:11:00,80.0,70.0,-100.00,North,0,2.0,-999.0,71,-99.99,,,-99.99,,2013-08-08 01:11:00,
2013-08-07 20:22:00,78.0,70.0,-100.00,NNE,23,4.0,-999.0,76,-99.99,,,-99.99,,2013-08-08 01:22:00,
2013-08-07 20:32:00,77.0,69.0,-100.00,NNE,23,4.0,-999.0,76,-99.99,,,-99.99,,2013-08-08 01:32:00,
2013-08-07 20:43:00,77.0,69.0,-100.00,NNE,23,4.0,-999.0,76,-99.99,,,-99.99,,2013-08-08 01:43:00,
2013-08-07 20:52:00,76.0,69.0,-100.00,NNE,23,3.0,-999.0,79,-99.99,,,-99.99,,2013-08-08 01:52:00,
2013-08-07 21:02:00,75.0,68.0,-100.00,NNE,23,3.0,-999.0,78,-99.99,,,-99.99,,2013-08-08 02:02:00,
2013-08-07 21:11:00,75.0,68.0,-100.00,NNE,23,3.0,-999.0,78,-99.99,,,-99.99,,2013-08-08 02:11:00,
2013-08-07 21:22:00,75.0,68.0,-100.00,NNE,23,4.0,-999.0,80,-99.99,,,-99.99,,2013-08-08 02:22:00,
2013-08-07 21:32:00,74.0,68.0,-100.00,NNE,23,4.0,-999.0,84,-99.99,,,-99.99,,2013-08-08 02:32:00,
2013-08-07 21:42:00,74.0,68.0,-100.00,NNE,23,4.0,-999.0,84,-99.99,,,-99.99,,2013-08-08 02:42:00,
2013-08-07 21:52:00,73.0,68.0,-100.00,NE,45,5.0,-999.0,85,-99.99,,,-99.99,,2013-08-08 02:52:00,
2013-08-07 22:01:00,72.0,67.0,-100.00,NE,45,5.0,-999.0,86,-99.99,,,-99.99,,2013-08-08 03:01:00,
2013-08-07 22:12:00,72.0,67.0,-100.00,NE,45,5.0,-999.0,86,-99.99,,,-99.99,,2013-08-08 03:12:00,
2013-08-07 22:22:00,71.0,67.0,-100.00,ENE,68,5.0,-999.0,87,-99.99,,,-99.99,,2013-08-08 03:22:00,
2013-08-07 22:32:00,70.0,67.0,-100.00,ENE,68,6.0,-999.0,88,-99.99,,,-99.99,,2013-08-08 03:32:00,
2013-08-07 22:43:00,70.0,67.0,-100.00,ENE,68,6.0,-999.0,88,-99.99,,,-99.99,,2013-08-08 03:43:00,
2013-08-07 22:52:00,70.0,66.0,-100.00,ENE,68,6.0,-999.0,87,-99.99,,,-99.99,,2013-08-08 03:52:00,
2013-08-07 23:01:00,70.0,66.0,-100.00,NE,45,6.0,-999.0,87,-99.99,,,-99.99,,2013-08-08 04:01:00,
2013-08-07 23:11:00,70.0,66.0,-100.00,NE,45,6.0,-999.0,87,-99.99,,,-99.99,,2013-08-08 04:11:00,
2013-08-07 23:22:00,70.0,65.0,-100.00,ENE,68,6.0,-999.0,86,-99.99,,,-99.99,,2013-08-08 04:22:00,
2013-08-07 23:33:00,69.0,65.0,-100.00,ENE,68,6.0,-999.0,86,-99.99,,,-99.99,,2013-08-08 04:33:00,
2013-08-07 23:43:00,69.0,65.0,-100.00,ENE,68,6.0,-999.0,86,-99.99,,,-99.99,,2013-08-08 04:43:00,
2013-08-07 23:53:00,69.0,65.0,-100.00,NE,45,6.0,-999.0,86,-99.99,,,-99.99,,2013-08-08 04:53:00,